User: anonymous   Login
Location: Terra Rouge Observatory
(46.0000°N, 62.7500°W)
Time: 21:19:12
(UTC-03:00)
Language:

Landsat 5 - Orbit

View from above orbital plane
View from above orbital plane
View from above satellite
View from above satellite

Ground track
Ground track

The orbit data is extracted from the following two-line orbital elements,

1 14780U 84021A   14298.18221536  .00005400  00000-0  53029-3 0  4690
2 14780 098.0468 017.6836 0096524 106.5574 309.1918 14.89127988631965
Epoch (UTC): 25 October 2014 04:22:23
Eccentricity: 0.0096524
inclination: 98.0468°
perigee height: 533 km
apogee height: 668 km
right ascension of ascending node: 17.6836°
argument of perigee: 106.5574°
revolutions per day: 14.89127988
mean anomaly at epoch: 309.1918°
orbit number at epoch: 63196

The dashed part of the orbit path shows where the satellite is in the earth's shadow,  

DLR